CFG3PY LEPA-EDDM

Flight info

Callsign CFG3PY
Flight time 1h 46m
Altitude 34000
Route MEROS DCT LAPIT DCT CHELY/N0448F320 DCT LUMAS DCT UNANA/N0444F300 DCT STP DCT RAPED DCT PIGOS DCT EKSID DCT NOSTA DCT NOPMU DCT VAKON DCT TAGIP DCT GUNGO DCT TISAX DCT IVKAL T102 NINUR T101 BETOS BETOS1B
Aircraft A321/M-SDE2E3FGHIJ1RWXYZ/LB1

Departure

Time 2026-05-05 05:31
Airport Palma de Mallorca Airport (LEPA)

Arrival

Time 2026-05-05 07:17
Airport Munich Airport (EDDM)
Time Latitude Longitude Altitude Speed Heading
2026-05-05 04:51 39.55053 2.73689 39 ft 0 kts 239°
2026-05-05 05:19 39.55057 2.73696 38 ft 4 kts 239°
2026-05-05 05:20 39.55070 2.73726 38 ft 4 kts 239°
2026-05-05 05:20 39.55082 2.73751 38 ft 4 kts 243°
2026-05-05 05:20 39.55089 2.73782 38 ft 4 kts 274°
2026-05-05 05:20 39.55082 2.73813 38 ft 4 kts 313°
2026-05-05 05:21 39.55062 2.73833 38 ft 4 kts 329°
2026-05-05 05:21 39.55039 2.73851 38 ft 4 kts 329°
2026-05-05 05:21 39.55032 2.73856 38 ft 0 kts 329°
2026-05-05 05:24 39.55054 2.73839 38 ft 10 kts 329°
2026-05-05 05:24 39.55120 2.73788 38 ft 12 kts 330°
2026-05-05 05:24 39.55203 2.73814 38 ft 14 kts
2026-05-05 05:24 39.55296 2.73758 38 ft 15 kts 330°
2026-05-05 05:25 39.55393 2.73680 38 ft 18 kts 329°
2026-05-05 05:25 39.55518 2.73583 38 ft 24 kts 329°
2026-05-05 05:25 39.55616 2.73510 38 ft 15 kts 341°
2026-05-05 05:25 39.55690 2.73573 38 ft 14 kts 56°
2026-05-05 05:26 39.55739 2.73677 38 ft 13 kts 59°
2026-05-05 05:26 39.55787 2.73780 36 ft 13 kts 59°
2026-05-05 05:26 39.55835 2.73881 37 ft 13 kts 58°
2026-05-05 05:26 39.55882 2.73982 38 ft 13 kts 59°
2026-05-05 05:27 39.55930 2.74084 38 ft 15 kts 59°
2026-05-05 05:27 39.55984 2.74198 38 ft 14 kts 58°
2026-05-05 05:27 39.56081 2.74402 38 ft 12 kts 58°
2026-05-05 05:28 39.56141 2.74446 38 ft 9 kts 359°
2026-05-05 05:28 39.56199 2.74418 37 ft 10 kts 330°
2026-05-05 05:28 39.56250 2.74337 38 ft 14 kts 269°
2026-05-05 05:28 39.56221 2.74256 37 ft 0 kts 239°
2026-05-05 05:29 39.56221 2.74255 38 ft 1 kts 239°
2026-05-05 05:29 39.56220 2.74254 38 ft 0 kts 239°
2026-05-05 05:29 39.56218 2.74248 36 ft 3 kts 239°
2026-05-05 05:30 39.56161 2.74127 37 ft 44 kts 238°
2026-05-05 05:30 39.55878 2.73539 38 ft 107 kts 238°
2026-05-05 05:30 39.55400 2.72525 38 ft 154 kts 238°
2026-05-05 05:30 39.54802 2.71265 368 ft 165 kts 238°
2026-05-05 05:31 39.54205 2.69989 961 ft 165 kts 238°
2026-05-05 05:31 39.53597 2.68699 1394 ft 174 kts 238°
2026-05-05 05:31 39.52927 2.67284 1552 ft 194 kts 238°
2026-05-05 05:31 39.52187 2.65721 1721 ft 211 kts 238°
2026-05-05 05:32 39.51409 2.64084 2203 ft 216 kts 238°
2026-05-05 05:32 39.50622 2.62429 2839 ft 216 kts 238°
2026-05-05 05:32 39.49721 2.60872 3378 ft 221 kts 221°
2026-05-05 05:32 39.48336 2.59792 3588 ft 245 kts 207°
2026-05-05 05:33 39.46762 2.58767 4115 ft 258 kts 207°
2026-05-05 05:33 39.45147 2.57725 4875 ft 262 kts 207°
2026-05-05 05:33 39.43473 2.56782 5643 ft 265 kts 193°
2026-05-05 05:33 39.41635 2.56928 6369 ft 273 kts 160°
2026-05-05 05:34 39.40067 2.58346 7089 ft 281 kts 137°
2026-05-05 05:34 39.38670 2.60134 7818 ft 283 kts 143°
2026-05-05 05:34 39.37147 2.61758 8544 ft 286 kts 141°
2026-05-05 05:34 39.35748 2.63566 9250 ft 290 kts 137°
2026-05-05 05:35 39.34290 2.65426 9949 ft 292 kts 140°
2026-05-05 05:35 39.32774 2.67263 10298 ft 309 kts 140°
2026-05-05 05:35 39.31135 2.69214 10448 ft 332 kts 141°
2026-05-05 05:35 39.29383 2.71306 10582 ft 353 kts 140°
2026-05-05 05:36 39.27719 2.73716 10963 ft 369 kts 123°
2026-05-05 05:36 39.26884 2.76826 11498 ft 381 kts 98°
2026-05-05 05:36 39.26775 2.80327 12097 ft 387 kts 92°
2026-05-05 05:36 39.26757 2.83823 12711 ft 392 kts 92°
2026-05-05 05:37 39.26912 2.87307 13260 ft 398 kts 82°
2026-05-05 05:37 39.27580 2.90795 13796 ft 404 kts 71°
2026-05-05 05:37 39.28749 2.94117 14313 ft 409 kts 59°
2026-05-05 05:37 39.30192 2.97310 14838 ft 414 kts 59°
2026-05-05 05:38 39.31642 3.00547 15359 ft 419 kts 59°
2026-05-05 05:38 39.33097 3.03825 15874 ft 423 kts 59°
2026-05-05 05:38 39.34562 3.07143 16388 ft 427 kts 59°
2026-05-05 05:38 39.36039 3.10493 16841 ft 432 kts 59°
2026-05-05 05:39 39.37535 3.13887 17310 ft 436 kts 59°
2026-05-05 05:39 39.39046 3.17311 17750 ft 441 kts 59°
2026-05-05 05:39 39.40571 3.20768 18202 ft 445 kts 59°
2026-05-05 05:39 39.42114 3.24260 18636 ft 449 kts 59°
2026-05-05 05:40 39.43676 3.27772 19057 ft 452 kts 58°
2026-05-05 05:40 39.45279 3.31290 19519 ft 455 kts 58°
2026-05-05 05:40 39.46913 3.34816 19943 ft 458 kts 58°
2026-05-05 05:40 39.48564 3.38360 20357 ft 461 kts 58°
2026-05-05 05:41 39.50226 3.41927 20761 ft 465 kts 58°
2026-05-05 05:41 39.51895 3.45530 21141 ft 468 kts 58°
2026-05-05 05:41 39.53564 3.49165 21535 ft 471 kts 58°
2026-05-05 05:41 39.55237 3.52828 21909 ft 474 kts 58°
2026-05-05 05:42 39.56918 3.56521 22307 ft 477 kts 58°
2026-05-05 05:42 39.58611 3.60242 22693 ft 480 kts 58°
2026-05-05 05:42 39.60309 3.63976 23069 ft 483 kts 58°
2026-05-05 05:42 39.62021 3.67739 23435 ft 486 kts 58°
2026-05-05 05:43 39.63746 3.71522 23784 ft 489 kts 58°
2026-05-05 05:43 39.65482 3.75333 24120 ft 492 kts 58°
2026-05-05 05:43 39.67221 3.79162 24465 ft 494 kts 59°
2026-05-05 05:43 39.68967 3.83013 24812 ft 496 kts 58°
2026-05-05 05:44 39.70723 3.86881 25149 ft 498 kts 58°
2026-05-05 05:44 39.72488 3.90763 25482 ft 500 kts 58°
2026-05-05 05:44 39.74257 3.94665 25815 ft 503 kts 58°
2026-05-05 05:44 39.76032 3.98595 26113 ft 505 kts 58°
2026-05-05 05:45 39.77810 4.02539 26411 ft 507 kts 58°
2026-05-05 05:45 39.79592 4.06503 26714 ft 509 kts 59°
2026-05-05 05:45 39.81389 4.10488 26992 ft 511 kts 57°
2026-05-05 05:45 39.83475 4.14222 27270 ft 511 kts 46°
2026-05-05 05:46 39.85949 4.17434 27540 ft 508 kts 37°
2026-05-05 05:46 39.88797 4.20129 27813 ft 505 kts 27°
2026-05-05 05:46 39.91907 4.22213 28069 ft 501 kts 17°
2026-05-05 05:46 39.95192 4.23639 28343 ft 496 kts
2026-05-05 05:47 39.98561 4.24499 28617 ft 494 kts
2026-05-05 05:47 40.01954 4.25289 28890 ft 495 kts
2026-05-05 05:47 40.05337 4.26075 29245 ft 493 kts
2026-05-05 05:47 40.08717 4.26862 29596 ft 492 kts
2026-05-05 05:48 40.12083 4.27656 29935 ft 492 kts
2026-05-05 05:48 40.15449 4.28456 30271 ft 491 kts
2026-05-05 05:48 40.18803 4.29250 30603 ft 490 kts
2026-05-05 05:48 40.21070 4.29784 30842 ft 488 kts
2026-05-05 05:49 40.24413 4.30572 31173 ft 487 kts
2026-05-05 05:49 40.27747 4.31359 31484 ft 487 kts
2026-05-05 05:49 40.31076 4.32149 31814 ft 486 kts
2026-05-05 05:49 40.34403 4.32943 32149 ft 485 kts
2026-05-05 05:50 40.37720 4.33735 32481 ft 484 kts
2026-05-05 05:50 40.41035 4.34525 32781 ft 484 kts
2026-05-05 05:50 40.44293 4.35300 33107 ft 482 kts
2026-05-05 05:50 40.47592 4.36080 33437 ft 481 kts
2026-05-05 05:51 40.50883 4.36859 33725 ft 480 kts
2026-05-05 05:51 40.54168 4.37641 33922 ft 480 kts
2026-05-05 05:51 40.60686 4.39204 33971 ft 475 kts
2026-05-05 05:52 40.67180 4.40761 33972 ft 474 kts
2026-05-05 05:52 40.73671 4.42319 33970 ft 474 kts
2026-05-05 05:53 40.80160 4.43882 33970 ft 474 kts
2026-05-05 05:53 40.86654 4.45445 33968 ft 474 kts
2026-05-05 05:54 40.93141 4.47007 33962 ft 474 kts
2026-05-05 05:54 40.99634 4.48579 33964 ft 475 kts
2026-05-05 05:55 41.06127 4.50158 33963 ft 475 kts
2026-05-05 05:55 41.12632 4.51736 33964 ft 475 kts
2026-05-05 05:56 41.19133 4.53319 33965 ft 475 kts
2026-05-05 05:56 41.25637 4.54913 33958 ft 475 kts
2026-05-05 05:57 41.32137 4.56505 33959 ft 475 kts
2026-05-05 05:57 41.38639 4.58100 33960 ft 475 kts
2026-05-05 05:58 41.45138 4.59699 33958 ft 475 kts
2026-05-05 05:58 41.51640 4.61299 33957 ft 475 kts
2026-05-05 05:59 41.58137 4.62916 33965 ft 475 kts
2026-05-05 05:59 41.64638 4.64530 33957 ft 475 kts
2026-05-05 06:00 41.71070 4.66735 33962 ft 484 kts 18°
2026-05-05 06:00 41.76873 4.71459 33957 ft 495 kts 38°
2026-05-05 06:01 41.81831 4.77893 33957 ft 497 kts 41°
2026-05-05 06:01 41.86719 4.84335 33934 ft 498 kts 41°
2026-05-05 06:02 41.91651 4.90858 33932 ft 498 kts 42°
2026-05-05 06:02 41.96569 4.97399 33854 ft 496 kts 42°
2026-05-05 06:03 41.99007 5.00654 33724 ft 494 kts 42°
2026-05-05 06:03 42.01445 5.03913 33608 ft 494 kts 43°
2026-05-05 06:03 42.03875 5.07160 33485 ft 491 kts 43°
2026-05-05 06:03 42.06293 5.10386 33360 ft 488 kts 43°
2026-05-05 06:04 42.08704 5.13604 33232 ft 488 kts 43°
2026-05-05 06:04 42.11111 5.16817 33108 ft 488 kts 43°
2026-05-05 06:04 42.13521 5.20038 32977 ft 488 kts 43°
2026-05-05 06:04 42.15926 5.23261 32861 ft 488 kts 43°
2026-05-05 06:05 42.18333 5.26494 32734 ft 488 kts 43°
2026-05-05 06:05 42.20734 5.29722 32609 ft 488 kts 43°
2026-05-05 06:05 42.23135 5.32950 32493 ft 488 kts 43°
2026-05-05 06:05 42.25538 5.36183 32354 ft 488 kts 43°
2026-05-05 06:06 42.27937 5.39418 32236 ft 488 kts 43°
2026-05-05 06:06 42.30343 5.42671 32118 ft 489 kts 43°
2026-05-05 06:06 42.32744 5.45926 31903 ft 489 kts 44°
2026-05-05 06:06 42.35141 5.49175 31953 ft 488 kts 43°
2026-05-05 06:07 42.39939 5.55673 31933 ft 489 kts 43°
2026-05-05 06:07 42.44771 5.62221 31946 ft 496 kts 42°
2026-05-05 06:08 42.49653 5.68865 31950 ft 498 kts 42°
2026-05-05 06:08 42.54539 5.75546 31933 ft 499 kts 42°
2026-05-05 06:09 42.59413 5.82233 31946 ft 499 kts 42°
2026-05-05 06:09 42.64265 5.88885 31946 ft 499 kts 43°
2026-05-05 06:10 42.69171 5.95633 31946 ft 499 kts 43°
2026-05-05 06:10 42.74012 6.02306 31952 ft 498 kts 43°
2026-05-05 06:11 42.78868 6.09019 31967 ft 497 kts 43°
2026-05-05 06:11 42.83691 6.15705 31968 ft 495 kts 43°
2026-05-05 06:12 42.88786 6.21953 31964 ft 491 kts 37°
2026-05-05 06:12 42.94021 6.27924 31962 ft 490 kts 38°
2026-05-05 06:13 42.99242 6.33914 31960 ft 489 kts 38°
2026-05-05 06:13 43.04438 6.39905 31961 ft 488 kts 38°
2026-05-05 06:14 43.09621 6.45893 31960 ft 487 kts 38°
2026-05-05 06:14 43.14797 6.51877 31954 ft 487 kts 38°
2026-05-05 06:15 43.19963 6.57870 31955 ft 486 kts 40°
2026-05-05 06:15 43.24419 6.64836 31953 ft 487 kts 54°
2026-05-05 06:16 43.28391 6.72373 31952 ft 487 kts 53°
2026-05-05 06:16 43.32366 6.79886 31953 ft 486 kts 53°
2026-05-05 06:17 43.36330 6.87408 31955 ft 485 kts 54°
2026-05-05 06:17 43.40269 6.94910 31866 ft 481 kts 54°
2026-05-05 06:18 43.42216 6.98623 31713 ft 478 kts 54°
2026-05-05 06:18 43.44157 7.02328 31561 ft 477 kts 54°
2026-05-05 06:18 43.46092 7.06033 31412 ft 476 kts 54°
2026-05-05 06:18 43.48023 7.09739 31263 ft 476 kts 54°
2026-05-05 06:19 43.49950 7.13440 31113 ft 475 kts 54°
2026-05-05 06:19 43.51874 7.17138 30962 ft 474 kts 54°
2026-05-05 06:19 43.53795 7.20830 30816 ft 474 kts 54°
2026-05-05 06:19 43.55714 7.24520 30665 ft 473 kts 54°
2026-05-05 06:20 43.57421 7.27807 30536 ft 473 kts 54°
2026-05-05 06:20 43.59331 7.31491 30380 ft 472 kts 54°
2026-05-05 06:20 43.61235 7.35172 30228 ft 471 kts 54°
2026-05-05 06:20 43.63110 7.38802 30071 ft 471 kts 55°
2026-05-05 06:21 43.65028 7.42523 29902 ft 469 kts 55°
2026-05-05 06:21 43.66896 7.46148 29958 ft 469 kts 55°
2026-05-05 06:21 43.70671 7.53480 29952 ft 468 kts 55°
2026-05-05 06:22 43.74433 7.60805 29953 ft 466 kts 55°
2026-05-05 06:22 43.78172 7.68115 29953 ft 464 kts 55°
2026-05-05 06:23 43.82068 7.75221 29950 ft 464 kts 46°
2026-05-05 06:23 43.87014 7.80935 29955 ft 463 kts 38°
2026-05-05 06:24 43.92112 7.86408 29956 ft 463 kts 38°
2026-05-05 06:24 43.97019 7.92168 29959 ft 462 kts 44°
2026-05-05 06:25 44.01661 7.98346 29963 ft 462 kts 44°
2026-05-05 06:25 44.06304 8.04523 29963 ft 462 kts 44°
2026-05-05 06:26 44.10939 8.10705 29961 ft 461 kts 44°
2026-05-05 06:26 44.15563 8.16900 29956 ft 461 kts 44°
2026-05-05 06:27 44.22498 8.26198 29952 ft 461 kts 44°
2026-05-05 06:28 44.27126 8.32408 29948 ft 461 kts 44°
2026-05-05 06:28 44.31747 8.38631 29943 ft 462 kts 44°
2026-05-05 06:29 44.36364 8.44876 29949 ft 462 kts 44°
2026-05-05 06:29 44.40977 8.51130 29942 ft 462 kts 45°
2026-05-05 06:30 44.45588 8.57385 29938 ft 462 kts 45°
2026-05-05 06:30 44.50199 8.63654 29936 ft 462 kts 45°
2026-05-05 06:31 44.54808 8.69942 29936 ft 463 kts 45°
2026-05-05 06:31 44.59421 8.76250 29938 ft 463 kts 45°
2026-05-05 06:32 44.64032 8.82567 29938 ft 463 kts 45°
2026-05-05 06:32 44.68638 8.88900 29937 ft 464 kts 45°
2026-05-05 06:33 44.72472 8.94177 29942 ft 464 kts 45°
2026-05-05 06:33 44.77080 9.00525 29954 ft 464 kts 45°
2026-05-05 06:34 44.81688 9.06894 29951 ft 464 kts 45°
2026-05-05 06:34 44.86295 9.13268 29957 ft 464 kts 45°
2026-05-05 06:35 44.90891 9.19653 29961 ft 464 kts 45°
2026-05-05 06:35 44.95488 9.26057 29968 ft 464 kts 45°
2026-05-05 06:36 45.00080 9.32469 29972 ft 465 kts 45°
2026-05-05 06:36 45.04679 9.38903 29978 ft 465 kts 45°
2026-05-05 06:37 45.09276 9.45344 29978 ft 465 kts 45°
2026-05-05 06:37 45.13871 9.51801 29983 ft 466 kts 45°
2026-05-05 06:38 45.18470 9.58279 29984 ft 466 kts 45°
2026-05-05 06:38 45.23064 9.64766 29986 ft 466 kts 45°
2026-05-05 06:39 45.27662 9.71268 29988 ft 466 kts 46°
2026-05-05 06:39 45.32254 9.77776 29986 ft 467 kts 46°
2026-05-05 06:40 45.36819 9.84277 29985 ft 468 kts 46°
2026-05-05 06:40 45.41441 9.90874 29983 ft 468 kts 46°
2026-05-05 06:41 45.46032 9.97440 29982 ft 468 kts 46°
2026-05-05 06:41 45.50598 10.04051 29982 ft 468 kts 47°
2026-05-05 06:42 45.55075 10.10791 29975 ft 468 kts 48°
2026-05-05 06:42 45.59499 10.17525 29969 ft 468 kts 47°
2026-05-05 06:43 45.63967 10.24288 29967 ft 468 kts 47°
2026-05-05 06:43 45.68449 10.31042 29967 ft 468 kts 47°
2026-05-05 06:44 45.72924 10.37804 29973 ft 469 kts 47°
2026-05-05 06:44 45.77392 10.44597 29982 ft 469 kts 47°
2026-05-05 06:45 45.81862 10.51402 29992 ft 469 kts 47°
2026-05-05 06:45 45.86328 10.58220 29998 ft 469 kts 47°
2026-05-05 06:46 45.90788 10.65055 30020 ft 469 kts 47°
2026-05-05 06:46 45.95862 10.70895 30020 ft 469 kts 30°
2026-05-05 06:47 46.01598 10.75307 30016 ft 469 kts 27°
2026-05-05 06:47 46.07359 10.79743 30027 ft 470 kts 27°
2026-05-05 06:48 46.13124 10.84190 30036 ft 470 kts 27°
2026-05-05 06:48 46.18886 10.88643 30043 ft 470 kts 27°
2026-05-05 06:49 46.24647 10.93102 30046 ft 469 kts 27°
2026-05-05 06:49 46.30398 10.97555 30046 ft 469 kts 27°
2026-05-05 06:50 46.36110 11.02003 30039 ft 469 kts 27°
2026-05-05 06:50 46.42113 11.05580 30041 ft 466 kts 11°
2026-05-05 06:51 46.48507 11.06483 30041 ft 461 kts 357°
2026-05-05 06:51 46.54922 11.06469 30027 ft 461 kts 358°
2026-05-05 06:52 46.61332 11.06483 30021 ft 460 kts 358°
2026-05-05 06:52 46.67705 11.05925 30019 ft 458 kts 350°
2026-05-05 06:53 46.74019 11.04755 30008 ft 457 kts 350°
2026-05-05 06:53 46.80322 11.03576 29997 ft 457 kts 350°
2026-05-05 06:54 46.86623 11.02376 29991 ft 456 kts 350°
2026-05-05 06:54 46.92923 11.01193 29980 ft 457 kts 353°
2026-05-05 06:55 46.99295 11.01577 29979 ft 460 kts
2026-05-05 06:55 47.05666 11.02557 29976 ft 460 kts
2026-05-05 06:56 47.12039 11.03524 29968 ft 460 kts
2026-05-05 06:56 47.18484 11.04498 29960 ft 470 kts
2026-05-05 06:57 47.24999 11.05494 29959 ft 476 kts
2026-05-05 06:57 47.31587 11.06502 29951 ft 476 kts
2026-05-05 06:58 47.38177 11.07510 28913 ft 480 kts
2026-05-05 06:58 47.41527 11.08015 27772 ft 487 kts
2026-05-05 06:58 47.44911 11.08527 26787 ft 489 kts
2026-05-05 06:58 47.48275 11.09046 26136 ft 484 kts
2026-05-05 06:59 47.51606 11.09568 25474 ft 479 kts
2026-05-05 06:59 47.54887 11.10268 24799 ft 476 kts 11°
2026-05-05 06:59 47.58024 11.11777 24122 ft 473 kts 22°
2026-05-05 06:59 47.60928 11.14057 23412 ft 470 kts 29°
2026-05-05 07:00 47.63733 11.16497 22737 ft 465 kts 29°
2026-05-05 07:00 47.66510 11.18911 22074 ft 460 kts 30°
2026-05-05 07:00 47.69260 11.21302 21405 ft 456 kts 30°
2026-05-05 07:00 47.71985 11.23671 20759 ft 451 kts 29°
2026-05-05 07:01 47.74774 11.25728 20100 ft 444 kts 20°
2026-05-05 07:01 47.77655 11.27337 19457 ft 440 kts 19°
2026-05-05 07:01 47.80512 11.28920 18796 ft 436 kts 19°
2026-05-05 07:01 47.83341 11.30496 18144 ft 433 kts 20°
2026-05-05 07:02 47.86149 11.32056 17529 ft 428 kts 19°
2026-05-05 07:02 47.88982 11.33286 16916 ft 422 kts
2026-05-05 07:02 47.91882 11.33737 16274 ft 417 kts
2026-05-05 07:02 47.94765 11.33975 15614 ft 413 kts
2026-05-05 07:03 47.97623 11.34209 14962 ft 410 kts
2026-05-05 07:03 48.00464 11.34444 14324 ft 406 kts
2026-05-05 07:03 48.03197 11.35076 14071 ft 386 kts 18°
2026-05-05 07:03 48.05531 11.36704 13589 ft 360 kts 35°
2026-05-05 07:04 48.07349 11.39154 12725 ft 348 kts 53°
2026-05-05 07:04 48.08552 11.42219 12150 ft 338 kts 70°
2026-05-05 07:04 48.09341 11.45521 11846 ft 336 kts 72°
2026-05-05 07:04 48.10127 11.48798 11490 ft 334 kts 71°
2026-05-05 07:05 48.10919 11.52058 11135 ft 332 kts 71°
2026-05-05 07:05 48.11712 11.55297 10781 ft 330 kts 71°
2026-05-05 07:05 48.12495 11.58516 10440 ft 328 kts 71°
2026-05-05 07:05 48.13257 11.61669 10199 ft 319 kts 71°
2026-05-05 07:06 48.13998 11.64738 10076 ft 307 kts 71°
2026-05-05 07:06 48.14711 11.67692 9920 ft 297 kts 71°
2026-05-05 07:06 48.15400 11.70564 9724 ft 290 kts 72°
2026-05-05 07:06 48.16078 11.73407 9545 ft 290 kts 71°
2026-05-05 07:07 48.16754 11.76245 9269 ft 288 kts 71°
2026-05-05 07:07 48.17430 11.79064 8993 ft 287 kts 71°
2026-05-05 07:07 48.18150 11.81848 8711 ft 286 kts 65°
2026-05-05 07:07 48.19130 11.84440 8428 ft 286 kts 60°
2026-05-05 07:08 48.20140 11.87000 8147 ft 285 kts 60°
2026-05-05 07:08 48.21150 11.89555 7872 ft 284 kts 60°
2026-05-05 07:08 48.22143 11.92067 7599 ft 284 kts 60°
2026-05-05 07:08 48.23144 11.94610 7324 ft 283 kts 60°
2026-05-05 07:09 48.24141 11.97155 7046 ft 282 kts 60°
2026-05-05 07:09 48.25136 11.99686 6769 ft 282 kts 60°
2026-05-05 07:09 48.26131 12.02214 6501 ft 281 kts 60°
2026-05-05 07:09 48.27121 12.04742 6237 ft 280 kts 60°
2026-05-05 07:10 48.28106 12.07266 5947 ft 280 kts 60°
2026-05-05 07:10 48.29088 12.09777 5684 ft 279 kts 60°
2026-05-05 07:10 48.30066 12.12279 5460 ft 274 kts 60°
2026-05-05 07:10 48.31007 12.14687 5364 ft 261 kts 58°
2026-05-05 07:11 48.32242 12.16554 5289 ft 248 kts 27°
2026-05-05 07:11 48.33871 12.17116 5235 ft 242 kts 354°
2026-05-05 07:11 48.35418 12.16347 5207 ft 229 kts 324°
2026-05-05 07:11 48.36466 12.14646 5115 ft 220 kts 296°
2026-05-05 07:12 48.36852 12.12471 5011 ft 216 kts 269°
2026-05-05 07:12 48.36712 12.10230 5017 ft 215 kts 262°
2026-05-05 07:12 48.36544 12.07988 4980 ft 216 kts 262°
2026-05-05 07:12 48.36378 12.05744 4760 ft 215 kts 262°
2026-05-05 07:13 48.36213 12.03515 4491 ft 212 kts 262°
2026-05-05 07:13 48.36054 12.01362 4216 ft 202 kts 262°
2026-05-05 07:13 48.35901 11.99313 3946 ft 191 kts 262°
2026-05-05 07:13 48.35758 11.97395 3706 ft 179 kts 262°
2026-05-05 07:14 48.35622 11.95587 3465 ft 169 kts 263°
2026-05-05 07:14 48.35493 11.93865 3263 ft 163 kts 263°
2026-05-05 07:14 48.35366 11.92180 3040 ft 158 kts 262°
2026-05-05 07:14 48.35246 11.90585 2827 ft 150 kts 263°
2026-05-05 07:15 48.35130 11.89044 2634 ft 147 kts 263°
2026-05-05 07:15 48.35015 11.87528 2450 ft 145 kts 263°
2026-05-05 07:15 48.34914 11.86024 2260 ft 145 kts 264°
2026-05-05 07:15 48.34795 11.84526 2036 ft 144 kts 262°
2026-05-05 07:16 48.34667 11.83032 1860 ft 144 kts 263°
2026-05-05 07:16 48.34562 11.81537 1696 ft 144 kts 264°
2026-05-05 07:16 48.34448 11.80056 1522 ft 143 kts 264°
2026-05-05 07:16 48.34345 11.78684 1487 ft 118 kts 263°
2026-05-05 07:17 48.34264 11.77727 1478 ft 72 kts 264°
2026-05-05 07:17 48.34266 11.77227 1485 ft 35 kts 283°
2026-05-05 07:17 48.34318 11.77046 1485 ft 23 kts 295°
2026-05-05 07:17 48.34383 11.76843 1485 ft 14 kts 295°
2026-05-05 07:18 48.34461 11.76710 1482 ft 21 kts 335°
2026-05-05 07:18 48.34581 11.76766 1482 ft 20 kts 73°
2026-05-05 07:18 48.34594 11.76978 1473 ft 21 kts 82°
2026-05-05 07:18 48.34613 11.77196 1481 ft 21 kts 83°
2026-05-05 07:19 48.34630 11.77424 1475 ft 23 kts 83°
2026-05-05 07:19 48.34649 11.77665 1483 ft 24 kts 83°
2026-05-05 07:19 48.34677 11.77876 1481 ft 17 kts 43°
2026-05-05 07:19 48.34795 11.77877 1485 ft 18 kts 354°
2026-05-05 07:20 48.34922 11.77857 1482 ft 19 kts 353°
2026-05-05 07:20 48.35051 11.77833 1485 ft 18 kts 352°
2026-05-05 07:20 48.35169 11.77854 1475 ft 18 kts 50°
2026-05-05 07:20 48.35196 11.78040 1480 ft 19 kts 84°
2026-05-05 07:21 48.35194 11.78144 1478 ft 12 kts 117°
2026-05-05 07:21 48.35097 11.78182 1485 ft 14 kts 173°
2026-05-05 07:21 48.35003 11.78197 1485 ft 13 kts 174°
2026-05-05 07:21 48.34938 11.78228 1479 ft 8 kts 128°
2026-05-05 07:22 48.34943 11.78297 1485 ft 7 kts 83°
2026-05-05 07:22 48.34948 11.78364 1485 ft 5 kts 83°
2026-05-05 07:22 48.34950 11.78386 1475 ft 0 kts 83°